Weather History for Sheridan, WY

Change the Weather History Date:

Thursday, October 25, 2012

  Actual Average Record
Temperature  
Mean Temperature 26 °F 42 °F  
Max Temperature 28 °F 57 °F 81 °F (1977)
Min Temperature 23 °F 28 °F 8 °F (1997)
Degree Days  
Heating Degree Days 39 23  
Month to date heating degree days 491 461  
Since 1 July heating degree days 641 764  
Cooling Degree Days 0 0  
Month to date cooling degree days 0 0  
Year to date cooling degree days 664 418  
Moisture  
Dew Point 23 °F    
Average Humidity 87    
Maximum Humidity 92    
Minimum Humidity 81    
Precipitation  
Precipitation T in 0.04 in 0.50 in (1913)
Month to date precipitation 0.95 1.22  
Year to date precipitation 7.94 12.70  
Sea Level Pressure  
Sea Level Pressure 30.33 in    
Wind  
Wind Speed 6 mph (North)    
Max Wind Speed 13 mph    
Max Gust Speed 16 mph    
Visibility 10 miles    
Events Snow    
T = Trace of Precipitation, MM = Missing Value Source: NWS Daily Summary

Daily Weather History Graph

Daily Weather History Graph

Search for Another Location

Airport:

Trip Planner

Search our weather history database for the weather conditions in past years. The results will help you decide how hot, cold, wet, or windy it might be!

Date:

Astronomy

Oct. 25, 2012 Rise Set
Actual Time 7:37 AM MDT 6:05 PM MDT
Civil Twilight 7:07 AM MDT 6:35 PM MDT
Nautical Twilight 6:32 AM MDT 7:10 PM MDT
Astronomical Twilight 5:59 AM MDT 7:43 PM MDT
Moon 4:01 PM MDT (10/25) 3:27 AM MDT (10/25)
Length of Visible Light 11h 28m
Length of Day
10h 28m
Waxing Gibbous, 85% of the Moon is Illuminated
Oct 25
Waxing Gibbous
Oct 29
Full
Nov 6
Last Quarter
Nov 13
New
Nov 20
First Quarter

Hourly Weather History & Observations

Time (MDT) Temp. Windchill Dew Point Humidity Pressure Visibility Wind Dir Wind Speed Gust Speed Precip Events Conditions
12:53 AM 26.1 °F - 23.0 °F 88% 30.25 in 10.0 mi Calm Calm - N/A   Clear
1:41 AM 24.8 °F - 21.2 °F 86% 30.15 in 10.0 mi Calm Calm - N/A   Mostly Cloudy
1:53 AM 24.1 °F - 21.9 °F 91% 30.26 in 10.0 mi Calm Calm - N/A   Overcast
2:53 AM 28.0 °F 22.8 °F 25.0 °F 88% 30.26 in 10.0 mi WNW 4.6 mph - N/A   Overcast
3:53 AM 28.0 °F 20.0 °F 25.0 °F 88% 30.26 in 10.0 mi WNW 8.1 mph - N/A   Overcast
4:00 AM 28.4 °F 20.4 °F 24.8 °F 86% 30.16 in 10.0 mi WNW 8.1 mph - N/A   Overcast
4:35 AM 26.6 °F 20.0 °F 26.6 °F 100% 30.17 in 10.0 mi North 5.8 mph - N/A   Overcast
4:53 AM 27.0 °F 21.6 °F 25.0 °F 92% 30.27 in 10.0 mi North 4.6 mph - N/A   Overcast
5:12 AM 26.6 °F 20.0 °F 24.8 °F 93% 30.18 in 10.0 mi North 5.8 mph - N/A   Overcast
5:34 AM 26.6 °F - 24.8 °F 93% 30.18 in 10.0 mi Calm Calm - N/A   Overcast
5:53 AM 27.0 °F 23.0 °F 25.0 °F 92% 30.29 in 10.0 mi North 3.5 mph - N/A   Overcast
6:44 AM 26.6 °F - 24.8 °F 93% 30.19 in 10.0 mi Calm Calm - N/A   Overcast
6:53 AM 27.0 °F - 25.0 °F 92% 30.32 in 10.0 mi Calm Calm - N/A   Overcast
7:53 AM 27.0 °F 18.7 °F 24.1 °F 89% 30.33 in 10.0 mi NE 8.1 mph - N/A   Overcast
8:53 AM 26.1 °F 18.4 °F 23.0 °F 88% 30.36 in 10.0 mi NE 6.9 mph - N/A   Overcast
9:02 AM 26.6 °F 18.2 °F 23.0 °F 86% 30.23 in 10.0 mi NE 8.1 mph - N/A   Overcast
9:50 AM 26.6 °F 19.1 °F 23.0 °F 86% 30.24 in 10.0 mi NE 6.9 mph - N/A   Overcast
9:53 AM 26.1 °F 16.8 °F 23.0 °F 88% 30.38 in 10.0 mi NE 9.2 mph - N/A   Overcast
10:53 AM 26.1 °F 18.4 °F 23.0 °F 88% 30.39 in 10.0 mi NE 6.9 mph - N/A   Overcast
11:24 AM 26.6 °F 20.0 °F 23.0 °F 86% 30.26 in 10.0 mi NNE 5.8 mph - N/A   Overcast
11:53 AM 26.1 °F - 23.0 °F 88% 30.40 in 10.0 mi Calm Calm - N/A   Overcast
12:53 PM 26.1 °F 19.4 °F 24.1 °F 92% 30.40 in 7.0 mi NE 5.8 mph - 0.00 in Snow Light Snow
1:03 PM 26.6 °F 20.0 °F 24.8 °F 93% 30.26 in 8.0 mi NNE 5.8 mph - N/A   Overcast
1:45 PM 26.6 °F 21.2 °F 24.8 °F 93% 30.26 in 10.0 mi NNE 4.6 mph - N/A   Overcast
1:53 PM 26.6 °F 22.6 °F 23.0 °F 86% 30.26 in 10.0 mi NE 3.5 mph - N/A   Overcast
2:53 PM 27.0 °F - 23.0 °F 85% 30.39 in 10.0 mi Calm Calm - N/A   Overcast
3:53 PM 27.0 °F 21.6 °F 21.9 °F 81% 30.41 in 10.0 mi NNW 4.6 mph - N/A   Overcast
4:53 PM 27.0 °F 21.6 °F 23.0 °F 85% 30.43 in 10.0 mi NNW 4.6 mph - N/A   Overcast
5:53 PM 27.0 °F 18.0 °F 21.9 °F 81% 30.45 in 4.0 mi North 9.2 mph - 0.00 in Snow Light Snow
6:06 PM 26.6 °F 17.5 °F 21.2 °F 80% 30.33 in 7.0 mi North 9.2 mph - 0.00 in Snow Light Snow
6:31 PM 26.6 °F 17.5 °F 21.2 °F 80% 30.33 in 10.0 mi NW 9.2 mph - 0.00 in   Overcast
6:53 PM 26.1 °F 16.2 °F 21.9 °F 84% 30.48 in 10.0 mi NW 10.4 mph - 0.00 in   Overcast
7:53 PM 26.1 °F 16.8 °F 21.9 °F 84% 30.49 in 10.0 mi NW 9.2 mph - N/A   Overcast
8:53 PM 25.0 °F 16.3 °F 21.9 °F 88% 30.50 in 10.0 mi NNW 8.1 mph - N/A   Overcast
9:26 PM 24.8 °F 15.3 °F 21.2 °F 86% 30.37 in 10.0 mi NNW 9.2 mph - N/A   Overcast
9:53 PM 25.0 °F 15.5 °F 21.0 °F 85% 30.52 in 10.0 mi NNW 9.2 mph - N/A   Overcast
10:53 PM 24.1 °F 13.7 °F 19.0 °F 81% 30.54 in 10.0 mi NNW 10.4 mph - N/A   Overcast
11:53 PM 24.8 °F 14.6 °F 19.4 °F 80% 30.40 in 10.0 mi NW 10.4 mph - N/A   Overcast